Time,TemperatureF,DewpointF,PressureIn,WindDirection,WindDirectionDegrees,WindSpeedMPH,WindSpeedGustMPH,Humidity,HourlyPrecipIn,Conditions,Clouds,dailyrainin,SoftwareType,DateUTC
2013-04-01 00:05:00,47.3,44.8,30.02,ESE,106,0.0,0.0,91,0.00,,OVC012,0.00,VWS V14.01,2013-04-01 07:05:00,
2013-04-01 00:10:00,47.4,45.2,30.02,ESE,106,0.0,0.0,92,0.00,,OVC012,0.00,VWS V14.01,2013-04-01 07:10:00,
2013-04-01 00:15:00,47.6,45.4,30.02,ESE,106,0.0,0.0,92,0.00,,OVC012,0.00,VWS V14.01,2013-04-01 07:15:00,
2013-04-01 00:20:00,47.7,45.5,30.02,ESE,106,0.0,0.0,92,0.00,,OVC012,0.00,VWS V14.01,2013-04-01 07:20:00,
2013-04-01 00:25:00,47.8,45.6,30.02,ESE,106,0.0,0.0,92,0.00,,OVC012,0.00,VWS V14.01,2013-04-01 07:25:00,
2013-04-01 00:30:00,47.8,45.6,30.02,ESE,106,0.0,0.0,92,0.00,,OVC012,0.00,VWS V14.01,2013-04-01 07:30:00,
2013-04-01 00:35:00,47.9,45.7,30.02,ESE,106,1.0,0.0,92,0.00,,OVC012,0.00,VWS V14.01,2013-04-01 07:35:00,
2013-04-01 00:40:00,48.0,45.8,30.02,ESE,106,0.0,0.0,92,0.00,,OVC012,0.00,VWS V14.01,2013-04-01 07:40:00,
2013-04-01 00:45:00,48.1,45.9,30.02,ESE,106,0.0,0.0,92,0.00,,OVC012,0.00,VWS V14.01,2013-04-01 07:45:00,
2013-04-01 00:50:00,48.2,46.0,30.02,ESE,106,0.0,0.0,92,0.00,,OVC012,0.00,VWS V14.01,2013-04-01 07:50:00,
2013-04-01 00:55:00,48.3,46.1,30.02,ESE,107,0.0,0.0,92,0.00,,OVC012,0.00,VWS V14.01,2013-04-01 07:55:00,
2013-04-01 01:00:00,48.5,46.3,30.02,ESE,106,0.0,0.0,92,0.00,,OVC012,0.00,VWS V14.01,2013-04-01 08:00:00,
2013-04-01 01:05:00,48.6,46.4,30.02,ESE,107,0.0,0.0,92,0.00,,OVC012,0.00,VWS V14.01,2013-04-01 08:05:00,
2013-04-01 01:10:00,48.5,46.3,30.02,ESE,106,0.0,0.0,92,0.00,,OVC012,0.00,VWS V14.01,2013-04-01 08:10:00,
2013-04-01 01:15:00,48.7,46.5,30.02,ESE,106,0.0,0.0,92,0.00,,OVC012,0.00,VWS V14.01,2013-04-01 08:15:00,
2013-04-01 01:20:00,48.9,46.7,30.02,ESE,106,0.0,0.0,92,0.00,,OVC012,0.00,VWS V14.01,2013-04-01 08:20:00,
2013-04-01 01:25:00,49.0,46.8,30.03,ESE,107,0.0,0.0,92,0.00,,BKN012,0.00,VWS V14.01,2013-04-01 08:25:00,
2013-04-01 01:30:00,49.1,46.9,30.02,ESE,111,3.0,0.0,92,0.00,,BKN012,0.00,VWS V14.01,2013-04-01 08:30:00,
2013-04-01 01:35:00,49.4,46.9,30.02,East,97,0.0,0.0,91,0.00,,BKN012,0.00,VWS V14.01,2013-04-01 08:35:00,
2013-04-01 01:40:00,49.5,47.0,30.03,East,96,0.0,0.0,91,0.00,,BKN012,0.00,VWS V14.01,2013-04-01 08:40:00,
2013-04-01 01:45:00,49.3,46.8,30.03,East,96,0.0,0.0,91,0.00,,SCT012,0.00,VWS V14.01,2013-04-01 08:45:00,
2013-04-01 01:50:00,48.9,46.4,30.03,East,96,0.0,0.0,91,0.00,,SCT012,0.00,VWS V14.01,2013-04-01 08:50:00,
2013-04-01 01:55:00,48.7,46.2,30.03,East,96,0.0,0.0,91,0.00,,SCT012,0.00,VWS V14.01,2013-04-01 08:55:00,
2013-04-01 02:00:00,48.6,46.1,30.03,East,96,0.0,0.0,91,0.00,,SCT012,0.00,VWS V14.01,2013-04-01 09:00:00,
2013-04-01 02:05:00,48.4,45.9,30.03,East,96,0.0,0.0,91,0.00,,BKN012,0.00,VWS V14.01,2013-04-01 09:05:00,
2013-04-01 02:10:00,48.1,45.6,30.03,East,97,0.0,0.0,91,0.00,,BKN012,0.00,VWS V14.01,2013-04-01 09:10:00,
2013-04-01 02:15:00,47.8,45.3,30.03,East,97,0.0,0.0,91,0.00,,BKN012,0.00,VWS V14.01,2013-04-01 09:15:00,
2013-04-01 02:20:00,47.6,45.1,30.03,East,96,0.0,0.0,91,0.00,,BKN012,0.00,VWS V14.01,2013-04-01 09:20:00,
2013-04-01 02:25:00,47.5,45.0,30.04,East,96,0.0,0.0,91,0.00,,BKN012,0.00,VWS V14.01,2013-04-01 09:25:00,
2013-04-01 02:30:00,47.4,45.2,30.04,East,96,0.0,0.0,92,0.00,,BKN012,0.00,VWS V14.01,2013-04-01 09:30:00,
2013-04-01 02:35:00,47.4,45.2,30.04,East,96,0.0,0.0,92,0.00,,BKN012,0.00,VWS V14.01,2013-04-01 09:35:00,
2013-04-01 02:40:00,47.4,45.2,30.04,East,96,0.0,0.0,92,0.00,,BKN012,0.00,VWS V14.01,2013-04-01 09:40:00,
2013-04-01 02:45:00,47.5,45.3,30.04,East,96,0.0,0.0,92,0.00,,OVC012,0.00,VWS V14.01,2013-04-01 09:45:00,
2013-04-01 02:50:00,47.6,45.4,30.03,East,96,0.0,0.0,92,0.00,,OVC012,0.00,VWS V14.01,2013-04-01 09:50:00,
2013-04-01 02:55:00,47.7,45.5,30.03,East,96,0.0,0.0,92,0.00,,OVC012,0.00,VWS V14.01,2013-04-01 09:55:00,
2013-04-01 03:00:00,47.8,45.6,30.03,East,96,0.0,0.0,92,0.00,,OVC012,0.00,VWS V14.01,2013-04-01 10:00:00,
2013-04-01 03:05:00,47.9,45.7,30.04,East,96,0.0,0.0,92,0.00,,OVC012,0.00,VWS V14.01,2013-04-01 10:05:00,
2013-04-01 03:10:00,48.1,45.9,30.03,East,96,0.0,0.0,92,0.00,,OVC012,0.00,VWS V14.01,2013-04-01 10:10:00,
2013-04-01 03:15:00,48.3,46.1,30.03,East,96,0.0,0.0,92,0.00,,OVC012,0.00,VWS V14.01,2013-04-01 10:15:00,
2013-04-01 03:20:00,48.5,46.3,30.03,East,96,0.0,0.0,92,0.00,,OVC012,0.00,VWS V14.01,2013-04-01 10:20:00,
2013-04-01 03:25:00,48.6,46.4,30.03,East,96,0.0,0.0,92,0.00,,OVC012,0.00,VWS V14.01,2013-04-01 10:25:00,
2013-04-01 03:30:00,48.7,46.5,30.03,East,97,0.0,0.0,92,0.00,,OVC012,0.00,VWS V14.01,2013-04-01 10:30:00,
2013-04-01 03:35:00,48.8,46.6,30.03,East,97,0.0,0.0,92,0.00,,OVC012,0.00,VWS V14.01,2013-04-01 10:35:00,
2013-04-01 03:40:00,48.9,46.7,30.03,East,96,0.0,0.0,92,0.00,,OVC012,0.00,VWS V14.01,2013-04-01 10:40:00,
2013-04-01 03:45:00,49.0,46.8,30.03,East,96,0.0,0.0,92,0.00,,OVC010,0.00,VWS V14.01,2013-04-01 10:45:00,
2013-04-01 03:50:00,49.1,46.9,30.03,East,96,0.0,0.0,92,0.00,,OVC010,0.00,VWS V14.01,2013-04-01 10:50:00,
2013-04-01 03:55:00,49.1,46.9,30.03,East,97,0.0,0.0,92,0.00,,OVC010,0.00,VWS V14.01,2013-04-01 10:55:00,
2013-04-01 04:00:00,49.2,46.7,30.03,East,96,0.0,0.0,91,0.00,,OVC010,0.00,VWS V14.01,2013-04-01 11:00:00,
2013-04-01 04:05:00,49.2,46.7,30.03,East,96,1.0,0.0,91,0.00,,OVC010,0.00,VWS V14.01,2013-04-01 11:05:00,
2013-04-01 04:10:00,49.3,46.8,30.03,East,96,0.0,0.0,91,0.00,,OVC010,0.00,VWS V14.01,2013-04-01 11:10:00,
2013-04-01 04:15:00,49.3,46.8,30.03,East,96,0.0,0.0,91,0.00,,OVC010,0.00,VWS V14.01,2013-04-01 11:15:00,
2013-04-01 04:20:00,49.3,46.8,30.03,East,96,0.0,0.0,91,0.00,,OVC010,0.00,VWS V14.01,2013-04-01 11:20:00,
2013-04-01 04:25:00,49.3,46.8,30.03,East,97,0.0,0.0,91,0.00,,OVC010,0.00,VWS V14.01,2013-04-01 11:25:00,
2013-04-01 04:30:00,49.3,46.8,30.03,East,96,0.0,0.0,91,0.00,,OVC010,0.00,VWS V14.01,2013-04-01 11:30:00,
2013-04-01 04:35:00,49.3,46.8,30.03,East,96,0.0,0.0,91,0.00,,OVC010,0.00,VWS V14.01,2013-04-01 11:35:00,
2013-04-01 04:40:00,49.3,46.8,30.03,East,96,0.0,0.0,91,0.00,,OVC010,0.00,VWS V14.01,2013-04-01 11:40:00,
2013-04-01 04:45:00,49.3,46.8,30.04,East,96,0.0,0.0,91,0.00,,OVC010,0.00,VWS V14.01,2013-04-01 11:45:00,
2013-04-01 04:50:00,49.4,46.9,30.04,East,96,0.0,0.0,91,0.00,,OVC010,0.00,VWS V14.01,2013-04-01 11:50:00,
2013-04-01 04:55:00,49.4,46.9,30.04,East,96,0.0,0.0,91,0.00,,OVC010,0.00,VWS V14.01,2013-04-01 11:55:00,
2013-04-01 05:00:00,49.4,46.9,30.04,East,96,0.0,0.0,91,0.00,,OVC010,0.00,VWS V14.01,2013-04-01 12:00:00,
2013-04-01 05:05:00,49.4,46.9,30.04,East,96,0.0,0.0,91,0.00,,OVC010,0.00,VWS V14.01,2013-04-01 12:05:00,
2013-04-01 05:10:00,49.5,47.0,30.04,East,97,0.0,0.0,91,0.00,,OVC010,0.00,VWS V14.01,2013-04-01 12:10:00,
2013-04-01 05:15:00,49.6,47.1,30.04,East,96,0.0,0.0,91,0.00,,OVC010,0.00,VWS V14.01,2013-04-01 12:15:00,
2013-04-01 05:20:00,49.6,47.1,30.04,East,96,0.0,0.0,91,0.00,,OVC010,0.00,VWS V14.01,2013-04-01 12:20:00,
2013-04-01 05:25:00,49.6,47.1,30.04,East,96,0.0,0.0,91,0.00,,OVC010,0.00,VWS V14.01,2013-04-01 12:25:00,
2013-04-01 05:30:00,49.6,47.1,30.04,East,96,0.0,0.0,91,0.00,,OVC010,0.00,VWS V14.01,2013-04-01 12:30:00,
2013-04-01 05:35:00,49.6,47.1,30.04,East,96,0.0,0.0,91,0.00,,OVC010,0.00,VWS V14.01,2013-04-01 12:35:00,
2013-04-01 05:40:00,49.6,47.1,30.04,East,96,0.0,0.0,91,0.00,,OVC010,0.00,VWS V14.01,2013-04-01 12:40:00,
2013-04-01 05:45:00,49.6,47.1,30.04,East,96,0.0,0.0,91,0.00,,OVC010,0.00,VWS V14.01,2013-04-01 12:45:00,
2013-04-01 05:50:00,49.7,47.2,30.04,East,96,0.0,0.0,91,0.00,,OVC010,0.00,VWS V14.01,2013-04-01 12:50:00,
2013-04-01 05:55:00,49.7,47.2,30.04,East,97,0.0,0.0,91,0.00,,OVC010,0.00,VWS V14.01,2013-04-01 12:55:00,
2013-04-01 06:00:00,49.7,47.2,30.04,East,96,0.0,0.0,91,0.00,,OVC010,0.00,VWS V14.01,2013-04-01 13:00:00,
2013-04-01 06:05:00,49.7,47.2,30.05,East,96,0.0,0.0,91,0.00,,OVC010,0.00,VWS V14.01,2013-04-01 13:05:00,
2013-04-01 06:10:00,49.7,47.2,30.05,East,96,0.0,0.0,91,0.00,,OVC010,0.00,VWS V14.01,2013-04-01 13:10:00,
2013-04-01 06:15:00,49.7,47.2,30.05,East,96,0.0,0.0,91,0.00,,OVC010,0.00,VWS V14.01,2013-04-01 13:15:00,
2013-04-01 06:20:00,49.7,47.2,30.05,East,96,0.0,0.0,91,0.00,,OVC010,0.00,VWS V14.01,2013-04-01 13:20:00,
2013-04-01 06:25:00,49.7,47.2,30.05,East,96,0.0,0.0,91,0.00,,OVC010,0.00,VWS V14.01,2013-04-01 13:25:00,
2013-04-01 06:30:00,49.7,47.2,30.05,East,96,0.0,0.0,91,0.00,,OVC010,0.00,VWS V14.01,2013-04-01 13:30:00,
2013-04-01 06:35:00,49.7,47.2,30.06,East,96,0.0,0.0,91,0.00,,OVC010,0.00,VWS V14.01,2013-04-01 13:35:00,
2013-04-01 06:40:00,49.7,47.2,30.06,East,96,0.0,0.0,91,0.00,,OVC010,0.00,VWS V14.01,2013-04-01 13:40:00,
2013-04-01 06:45:00,49.7,47.2,30.06,East,96,0.0,0.0,91,0.00,,OVC010,0.00,VWS V14.01,2013-04-01 13:45:00,
2013-04-01 06:50:00,49.7,47.2,30.06,East,96,0.0,0.0,91,0.00,,OVC010,0.00,VWS V14.01,2013-04-01 13:50:00,
2013-04-01 06:55:00,49.7,47.2,30.06,East,96,0.0,0.0,91,0.00,,OVC010,0.00,VWS V14.01,2013-04-01 13:55:00,
2013-04-01 07:00:00,49.7,47.2,30.06,East,96,0.0,0.0,91,0.00,,OVC010,0.00,VWS V14.01,2013-04-01 14:00:00,
2013-04-01 07:05:00,49.7,47.2,30.06,East,96,0.0,0.0,91,0.00,,OVC010,0.00,VWS V14.01,2013-04-01 14:05:00,
2013-04-01 07:10:00,49.7,47.2,30.06,East,96,0.0,0.0,91,0.00,,OVC010,0.00,VWS V14.01,2013-04-01 14:10:00,
2013-04-01 07:15:00,49.7,47.2,30.06,East,97,0.0,0.0,91,0.00,,OVC010,0.00,VWS V14.01,2013-04-01 14:15:00,
2013-04-01 07:20:00,49.7,47.2,30.07,East,96,0.0,0.0,91,0.00,,OVC010,0.00,VWS V14.01,2013-04-01 14:20:00,
2013-04-01 07:25:00,49.8,47.3,30.07,East,100,0.0,0.0,91,0.00,,OVC010,0.00,VWS V14.01,2013-04-01 14:25:00,
2013-04-01 07:30:00,49.8,47.3,30.07,East,99,0.0,0.0,91,0.00,,OVC010,0.00,VWS V14.01,2013-04-01 14:30:00,
2013-04-01 07:35:00,49.8,47.3,30.07,East,99,0.0,0.0,91,0.00,,OVC010,0.00,VWS V14.01,2013-04-01 14:35:00,
2013-04-01 07:40:00,49.8,47.3,30.07,East,99,0.0,0.0,91,0.00,,OVC010,0.00,VWS V14.01,2013-04-01 14:40:00,
2013-04-01 07:45:00,49.9,47.4,30.07,East,99,0.0,0.0,91,0.00,,OVC010,0.00,VWS V14.01,2013-04-01 14:45:00,
2013-04-01 07:50:00,49.9,47.4,30.07,East,99,0.0,0.0,91,0.00,,OVC010,0.00,VWS V14.01,2013-04-01 14:50:00,
2013-04-01 07:55:00,50.0,47.5,30.07,East,100,0.0,0.0,91,0.00,,OVC010,0.00,VWS V14.01,2013-04-01 14:55:00,
2013-04-01 08:00:00,50.0,47.5,30.07,East,98,0.0,0.0,91,0.00,,OVC010,0.00,VWS V14.01,2013-04-01 15:00:00,
2013-04-01 08:05:00,50.1,47.6,30.07,East,98,0.0,0.0,91,0.00,,OVC010,0.00,VWS V14.01,2013-04-01 15:05:00,
2013-04-01 08:10:00,50.2,47.7,30.07,East,99,0.0,0.0,91,0.00,,OVC010,0.00,VWS V14.01,2013-04-01 15:10:00,
2013-04-01 08:15:00,50.3,47.8,30.07,East,98,0.0,0.0,91,0.00,,OVC010,0.00,VWS V14.01,2013-04-01 15:15:00,
2013-04-01 08:20:00,50.4,47.9,30.08,East,98,0.0,0.0,91,0.00,,OVC010,0.00,VWS V14.01,2013-04-01 15:20:00,
2013-04-01 08:25:00,50.6,48.1,30.08,East,99,0.0,0.0,91,0.00,,OVC010,0.00,VWS V14.01,2013-04-01 15:25:00,
2013-04-01 08:30:00,50.6,47.8,30.08,East,98,0.0,0.0,90,0.00,,OVC010,0.00,VWS V14.01,2013-04-01 15:30:00,
2013-04-01 08:35:00,50.6,47.8,30.08,East,99,0.0,0.0,90,0.00,,OVC010,0.00,VWS V14.01,2013-04-01 15:35:00,
2013-04-01 08:40:00,50.8,48.0,30.08,East,100,0.0,0.0,90,0.00,,OVC010,0.00,VWS V14.01,2013-04-01 15:40:00,
2013-04-01 08:45:00,50.9,48.1,30.08,East,99,0.0,0.0,90,0.00,,OVC010,0.00,VWS V14.01,2013-04-01 15:45:00,
2013-04-01 08:50:00,50.9,48.1,30.08,East,99,0.0,0.0,90,0.00,,OVC010,0.00,VWS V14.01,2013-04-01 15:50:00,
2013-04-01 08:55:00,51.1,48.3,30.08,East,99,1.0,0.0,90,0.00,,OVC010,0.00,VWS V14.01,2013-04-01 15:55:00,
2013-04-01 09:00:00,51.2,48.4,30.08,ESE,110,0.0,0.0,90,0.00,,OVC010,0.00,VWS V14.01,2013-04-01 16:00:00,
2013-04-01 09:05:00,51.3,48.5,30.08,ESE,110,0.0,0.0,90,0.00,,OVC010,0.00,VWS V14.01,2013-04-01 16:05:00,
2013-04-01 09:10:00,51.6,48.8,30.08,ESE,111,1.0,0.0,90,0.00,,OVC010,0.00,VWS V14.01,2013-04-01 16:10:00,
2013-04-01 09:15:00,51.6,48.5,30.08,ESE,109,0.0,0.0,89,0.00,,OVC010,0.00,VWS V14.01,2013-04-01 16:15:00,
2013-04-01 09:20:00,51.5,48.4,30.08,NW,318,0.0,0.0,89,0.00,,OVC010,0.00,VWS V14.01,2013-04-01 16:20:00,
2013-04-01 09:25:00,51.5,48.4,30.08,NW,311,0.0,0.0,89,0.00,,OVC010,0.00,VWS V14.01,2013-04-01 16:25:00,
2013-04-01 09:30:00,51.8,48.7,30.08,NW,311,0.0,0.0,89,0.00,,OVC010,0.00,VWS V14.01,2013-04-01 16:30:00,
2013-04-01 09:35:00,51.9,48.8,30.09,NW,313,2.0,0.0,89,0.00,,OVC010,0.00,VWS V14.01,2013-04-01 16:35:00,
2013-04-01 09:40:00,51.9,48.8,30.09,NW,314,0.0,0.0,89,0.00,,OVC010,0.00,VWS V14.01,2013-04-01 16:40:00,
2013-04-01 09:45:00,52.1,49.0,30.09,NW,306,1.0,0.0,89,0.00,,OVC010,0.00,VWS V14.01,2013-04-01 16:45:00,
2013-04-01 09:50:00,52.1,49.0,30.09,WNW,303,0.0,0.0,89,0.00,,OVC010,0.00,VWS V14.01,2013-04-01 16:50:00,
2013-04-01 09:55:00,52.4,49.0,30.09,WNW,302,0.0,0.0,88,0.00,,OVC010,0.00,VWS V14.01,2013-04-01 16:55:00,
2013-04-01 10:00:00,52.7,49.2,30.09,NNW,336,0.0,0.0,88,0.00,,OVC010,0.00,VWS V14.01,2013-04-01 17:00:00,
2013-04-01 10:05:00,52.9,49.1,30.09,NNW,338,0.0,0.0,87,0.00,,OVC012,0.00,VWS V14.01,2013-04-01 17:05:00,
2013-04-01 10:10:00,53.1,49.3,30.09,NNW,338,0.0,0.0,87,0.00,,OVC012,0.00,VWS V14.01,2013-04-01 17:10:00,
2013-04-01 10:15:00,53.3,49.5,30.10,NNW,338,0.0,0.0,87,0.00,,OVC012,0.00,VWS V14.01,2013-04-01 17:15:00,
2013-04-01 10:20:00,53.6,49.8,30.10,NNW,338,0.0,0.0,87,0.00,,OVC012,0.00,VWS V14.01,2013-04-01 17:20:00,
2013-04-01 10:25:00,53.5,49.4,30.10,WNW,302,0.0,0.0,86,0.00,,OVC014,0.00,VWS V14.01,2013-04-01 17:25:00,
2013-04-01 10:30:00,53.7,49.6,30.10,WNW,302,0.0,0.0,86,0.00,,OVC014,0.00,VWS V14.01,2013-04-01 17:30:00,
2013-04-01 10:35:00,54.0,49.9,30.10,SW,225,0.0,0.0,86,0.00,,OVC014,0.00,VWS V14.01,2013-04-01 17:35:00,
2013-04-01 10:40:00,53.8,49.7,30.10,SW,227,1.0,0.0,86,0.00,,OVC014,0.00,VWS V14.01,2013-04-01 17:40:00,
2013-04-01 10:45:00,53.9,49.8,30.10,SSW,203,0.0,0.0,86,0.00,,OVC014,0.00,VWS V14.01,2013-04-01 17:45:00,
2013-04-01 10:50:00,54.1,50.0,30.10,SSW,203,0.0,0.0,86,0.00,,OVC014,0.00,VWS V14.01,2013-04-01 17:50:00,
2013-04-01 10:55:00,55.0,50.9,30.10,SSW,203,0.0,0.0,86,0.00,,OVC014,0.00,VWS V14.01,2013-04-01 17:55:00,
2013-04-01 11:00:00,55.8,50.7,30.10,ESE,114,0.0,0.0,83,0.00,,OVC014,0.00,VWS V14.01,2013-04-01 18:00:00,
2013-04-01 11:05:00,55.8,50.7,30.10,ESE,114,0.0,0.0,83,0.00,,OVC014,0.00,VWS V14.01,2013-04-01 18:05:00,
2013-04-01 11:10:00,56.3,50.9,30.10,ESE,114,0.0,0.0,82,0.00,,OVC014,0.00,VWS V14.01,2013-04-01 18:10:00,
2013-04-01 11:15:00,56.8,51.4,30.11,ESE,115,0.0,0.0,82,0.00,,OVC014,0.00,VWS V14.01,2013-04-01 18:15:00,
2013-04-01 11:20:00,57.1,51.3,30.11,WSW,253,1.0,0.0,81,0.00,,OVC014,0.00,VWS V14.01,2013-04-01 18:20:00,
2013-04-01 11:25:00,57.2,50.8,30.11,NW,323,0.0,0.0,79,0.00,,OVC020,0.00,VWS V14.01,2013-04-01 18:25:00,
2013-04-01 11:30:00,57.4,51.3,30.11,SSW,205,1.0,0.0,80,0.00,,OVC020,0.00,VWS V14.01,2013-04-01 18:30:00,
2013-04-01 11:35:00,57.5,51.0,30.11,SW,226,1.0,0.0,79,0.00,,OVC020,0.00,VWS V14.01,2013-04-01 18:35:00,
2013-04-01 11:40:00,57.7,50.9,30.11,ESE,103,1.0,0.0,78,0.00,,OVC020,0.00,VWS V14.01,2013-04-01 18:40:00,
2013-04-01 11:45:00,57.8,51.3,30.11,South,182,0.0,0.0,79,0.00,,OVC030,0.00,VWS V14.01,2013-04-01 18:45:00,
2013-04-01 11:50:00,58.7,51.9,30.11,NNW,345,0.0,0.0,78,0.00,,OVC030,0.00,VWS V14.01,2013-04-01 18:50:00,
2013-04-01 11:55:00,59.7,51.8,30.11,South,190,1.0,0.0,75,0.00,,OVC030,0.00,VWS V14.01,2013-04-01 18:55:00,
2013-04-01 12:00:00,60.1,52.2,30.11,WNW,288,1.0,0.0,75,0.00,,OVC030,0.00,VWS V14.01,2013-04-01 19:00:00,
2013-04-01 12:05:00,60.4,51.7,30.11,NW,320,3.0,0.0,73,0.00,,OVC030,0.00,VWS V14.01,2013-04-01 19:05:00,
2013-04-01 12:10:00,60.3,50.9,30.11,WNW,288,0.0,0.0,71,0.00,,OVC030,0.00,VWS V14.01,2013-04-01 19:10:00,
2013-04-01 12:15:00,60.1,51.1,30.10,NW,326,0.0,0.0,72,0.00,,BKN030,0.00,VWS V14.01,2013-04-01 19:15:00,
2013-04-01 12:20:00,60.5,51.8,30.11,NE,50,4.0,0.0,73,0.00,,BKN030,0.00,VWS V14.01,2013-04-01 19:20:00,
2013-04-01 12:25:00,60.4,51.0,30.11,ENE,70,2.0,0.0,71,0.00,,SCT030,0.00,VWS V14.01,2013-04-01 19:25:00,
2013-04-01 12:30:00,60.9,51.1,30.10,WSW,238,1.0,0.0,70,0.00,,SCT030,0.00,VWS V14.01,2013-04-01 19:30:00,
2013-04-01 12:35:00,61.6,51.0,30.10,NNE,32,0.0,0.0,68,0.00,,SCT030,0.00,VWS V14.01,2013-04-01 19:35:00,
2013-04-01 12:40:00,62.0,50.9,30.10,WSW,249,2.0,0.0,67,0.00,,SCT030,0.00,VWS V14.01,2013-04-01 19:40:00,
2013-04-01 12:45:00,61.0,51.2,30.10,SW,217,2.0,0.0,70,0.00,,BKN028,0.00,VWS V14.01,2013-04-01 19:45:00,
2013-04-01 12:50:00,61.4,51.5,30.10,WSW,249,0.0,0.0,70,0.00,,BKN028,0.00,VWS V14.01,2013-04-01 19:50:00,
2013-04-01 12:55:00,61.8,51.1,30.10,NNE,26,2.0,0.0,68,0.00,,BKN028,0.00,VWS V14.01,2013-04-01 19:55:00,
2013-04-01 13:00:00,61.8,50.7,30.10,NNE,27,1.0,0.0,67,0.00,,BKN028,0.00,VWS V14.01,2013-04-01 20:00:00,
2013-04-01 13:05:00,62.4,51.3,30.10,NNE,24,2.0,0.0,67,0.00,,FEW028,0.00,VWS V14.01,2013-04-01 20:05:00,
2013-04-01 13:10:00,62.9,51.4,30.10,East,81,1.0,0.0,66,0.00,,FEW028,0.00,VWS V14.01,2013-04-01 20:10:00,
2013-04-01 13:15:00,63.2,51.2,30.10,WNW,300,2.0,0.0,65,0.00,,FEW028,0.00,VWS V14.01,2013-04-01 20:15:00,
2013-04-01 13:20:00,63.3,51.3,30.09,ENE,71,2.0,0.0,65,0.00,,FEW028,0.00,VWS V14.01,2013-04-01 20:20:00,
2013-04-01 13:25:00,63.1,51.2,30.09,WNW,303,2.0,0.0,65,0.00,,FEW030,0.00,VWS V14.01,2013-04-01 20:25:00,
2013-04-01 13:30:00,63.4,51.4,30.09,NE,50,0.0,0.0,65,0.00,,FEW030,0.00,VWS V14.01,2013-04-01 20:30:00,
2013-04-01 13:35:00,63.8,51.4,30.09,North,360,2.0,0.0,64,0.00,,FEW030,0.00,VWS V14.01,2013-04-01 20:35:00,
2013-04-01 13:40:00,64.1,51.3,30.09,NW,304,0.0,0.0,63,0.00,,FEW030,0.00,VWS V14.01,2013-04-01 20:40:00,
2013-04-01 13:45:00,64.3,51.9,30.09,NW,311,6.0,0.0,64,0.00,,CLR,0.00,VWS V14.01,2013-04-01 20:45:00,
2013-04-01 13:50:00,64.6,51.7,30.09,NNW,327,4.0,0.0,63,0.00,,CLR,0.00,VWS V14.01,2013-04-01 20:50:00,
2013-04-01 13:55:00,65.5,51.7,30.09,ENE,72,5.0,0.0,61,0.00,,CLR,0.00,VWS V14.01,2013-04-01 20:55:00,
2013-04-01 14:00:00,65.1,51.3,30.09,NE,50,8.0,0.0,61,0.00,,CLR,0.00,VWS V14.01,2013-04-01 21:00:00,
2013-04-01 14:05:00,64.7,51.0,30.09,NNE,28,3.0,0.0,61,0.00,,CLR,0.00,VWS V14.01,2013-04-01 21:05:00,
2013-04-01 14:10:00,64.7,51.0,30.09,ESE,110,2.0,0.0,61,0.00,,CLR,0.00,VWS V14.01,2013-04-01 21:10:00,
2013-04-01 14:15:00,65.0,50.8,30.09,NE,55,3.0,0.0,60,0.00,,CLR,0.00,VWS V14.01,2013-04-01 21:15:00,
2013-04-01 14:20:00,64.9,51.2,30.09,WSW,245,1.0,0.0,61,0.00,,CLR,0.00,VWS V14.01,2013-04-01 21:20:00,
2013-04-01 14:25:00,65.6,51.4,30.09,ENE,78,1.0,0.0,60,0.00,,CLR,0.00,VWS V14.01,2013-04-01 21:25:00,
2013-04-01 14:30:00,66.7,52.4,30.09,NNW,336,4.0,0.0,60,0.00,,CLR,0.00,VWS V14.01,2013-04-01 21:30:00,
2013-04-01 14:35:00,66.7,51.5,30.08,SSW,195,3.0,0.0,58,0.00,,CLR,0.00,VWS V14.01,2013-04-01 21:35:00,
2013-04-01 14:40:00,67.2,53.8,30.08,SE,130,1.0,0.0,62,0.00,,CLR,0.00,VWS V14.01,2013-04-01 21:40:00,
2013-04-01 14:45:00,67.1,52.3,30.08,SSE,150,0.0,0.0,59,0.00,,FEW036,0.00,VWS V14.01,2013-04-01 21:45:00,
2013-04-01 14:50:00,67.1,50.9,30.08,East,99,5.0,0.0,56,0.00,,FEW036,0.00,VWS V14.01,2013-04-01 21:50:00,
2013-04-01 14:55:00,66.6,51.4,30.08,East,92,1.0,0.0,58,0.00,,FEW036,0.00,VWS V14.01,2013-04-01 21:55:00,
2013-04-01 15:00:00,66.3,51.6,30.08,East,100,5.0,0.0,59,0.00,,FEW036,0.00,VWS V14.01,2013-04-01 22:00:00,
2013-04-01 15:05:00,65.9,50.7,30.08,East,101,1.0,0.0,58,0.00,,FEW036,0.00,VWS V14.01,2013-04-01 22:05:00,
2013-04-01 15:10:00,65.8,51.5,30.08,ESE,114,0.0,0.0,60,0.00,,FEW036,0.00,VWS V14.01,2013-04-01 22:10:00,
2013-04-01 15:15:00,65.9,51.2,30.08,ESE,104,4.0,0.0,59,0.00,,FEW036,0.00,VWS V14.01,2013-04-01 22:15:00,
2013-04-01 15:20:00,65.6,50.9,30.08,South,176,0.0,0.0,59,0.00,,FEW036,0.00,VWS V14.01,2013-04-01 22:20:00,
2013-04-01 15:25:00,65.9,51.6,30.08,East,85,3.0,0.0,60,0.00,,CLR,0.00,VWS V14.01,2013-04-01 22:25:00,
2013-04-01 15:30:00,65.8,52.4,30.08,ESE,110,2.0,0.0,62,0.00,,CLR,0.00,VWS V14.01,2013-04-01 22:30:00,
2013-04-01 15:35:00,65.5,52.2,30.08,East,98,3.0,0.0,62,0.00,,CLR,0.00,VWS V14.01,2013-04-01 22:35:00,
2013-04-01 15:40:00,65.7,51.5,30.08,ESE,113,3.0,0.0,60,0.00,,CLR,0.00,VWS V14.01,2013-04-01 22:40:00,
2013-04-01 15:45:00,65.8,52.9,30.08,ESE,107,1.0,0.0,63,0.00,,FEW048,0.00,VWS V14.01,2013-04-01 22:45:00,
2013-04-01 15:50:00,66.2,51.9,30.08,ESE,105,10.0,0.0,60,0.00,,FEW048,0.00,VWS V14.01,2013-04-01 22:50:00,
2013-04-01 15:55:00,65.3,50.6,30.08,East,99,2.0,0.0,59,0.00,,FEW048,0.00,VWS V14.01,2013-04-01 22:55:00,
2013-04-01 16:00:00,65.0,51.2,30.08,SE,128,4.0,0.0,61,0.00,,FEW048,0.00,VWS V14.01,2013-04-01 23:00:00,
2013-04-01 16:05:00,65.0,50.8,30.08,ESE,116,2.0,0.0,60,0.00,,SCT050,0.00,VWS V14.01,2013-04-01 23:05:00,
2013-04-01 16:10:00,65.1,51.8,30.08,SE,135,0.0,0.0,62,0.00,,SCT050,0.00,VWS V14.01,2013-04-01 23:10:00,
2013-04-01 16:15:00,65.4,52.1,30.09,ESE,113,2.0,0.0,62,0.00,,SCT050,0.00,VWS V14.01,2013-04-01 23:15:00,
2013-04-01 16:20:00,65.7,52.8,30.09,ESE,105,4.0,0.0,63,0.00,,SCT050,0.00,VWS V14.01,2013-04-01 23:20:00,
2013-04-01 16:25:00,65.4,52.1,30.09,East,101,2.0,0.0,62,0.00,,BKN050,0.00,VWS V14.01,2013-04-01 23:25:00,
2013-04-01 16:30:00,65.5,52.6,30.09,ESE,123,3.0,0.0,63,0.00,,BKN050,0.00,VWS V14.01,2013-04-01 23:30:00,
2013-04-01 16:35:00,64.8,52.3,30.09,East,85,5.0,0.0,64,0.00,,BKN050,0.00,VWS V14.01,2013-04-01 23:35:00,
2013-04-01 16:40:00,64.0,52.0,30.09,ESE,111,5.0,0.0,65,0.00,,BKN050,0.00,VWS V14.01,2013-04-01 23:40:00,
2013-04-01 16:45:00,63.5,52.0,30.09,ESE,116,1.0,0.0,66,0.00,,OVC050,0.00,VWS V14.01,2013-04-01 23:45:00,
2013-04-01 16:50:00,63.2,52.1,30.09,ENE,70,5.0,0.0,67,0.00,,OVC050,0.00,VWS V14.01,2013-04-01 23:50:00,
2013-04-01 16:55:00,62.7,52.0,30.09,ESE,102,2.0,0.0,68,0.00,,OVC050,0.00,VWS V14.01,2013-04-01 23:55:00,
2013-04-01 17:00:00,62.4,51.7,30.09,ESE,109,5.0,0.0,68,0.00,,OVC050,0.00,VWS V14.01,2013-04-02 00:00:00,
2013-04-01 17:05:00,62.8,52.9,30.09,ESE,119,1.0,0.0,70,0.00,,OVC050,0.00,VWS V14.01,2013-04-02 00:05:00,
2013-04-01 17:10:00,62.8,52.9,30.10,East,96,9.0,0.0,70,0.00,,OVC050,0.00,VWS V14.01,2013-04-02 00:10:00,
2013-04-01 17:15:00,62.4,52.1,30.10,SE,126,4.0,0.0,69,0.00,,OVC050,0.00,VWS V14.01,2013-04-02 00:15:00,
2013-04-01 17:20:00,62.4,52.5,30.10,East,95,6.0,0.0,70,0.00,,OVC050,0.00,VWS V14.01,2013-04-02 00:20:00,
2013-04-01 17:25:00,62.4,52.1,30.10,ENE,71,2.0,0.0,69,0.00,,SCT050,0.00,VWS V14.01,2013-04-02 00:25:00,
2013-04-01 17:30:00,61.8,51.9,30.10,East,101,4.0,0.0,70,0.00,,SCT050,0.00,VWS V14.01,2013-04-02 00:30:00,
2013-04-01 17:35:00,61.7,52.2,30.10,East,98,2.0,0.0,71,0.00,,SCT050,0.00,VWS V14.01,2013-04-02 00:35:00,
2013-04-01 17:40:00,61.4,51.9,30.10,ESE,105,9.0,0.0,71,0.00,,SCT050,0.00,VWS V14.01,2013-04-02 00:40:00,
2013-04-01 17:45:00,61.2,52.5,30.11,ESE,111,3.0,0.0,73,0.00,,SCT060,0.00,VWS V14.01,2013-04-02 00:45:00,
2013-04-01 17:50:00,61.0,51.9,30.11,East,85,7.0,0.0,72,0.00,,SCT060,0.00,VWS V14.01,2013-04-02 00:50:00,
2013-04-01 17:55:00,60.6,51.9,30.11,East,84,3.0,0.0,73,0.00,,SCT060,0.00,VWS V14.01,2013-04-02 00:55:00,
2013-04-01 18:00:00,60.0,51.7,30.11,SE,129,6.0,0.0,74,0.00,,SCT060,0.00,VWS V14.01,2013-04-02 01:00:00,
2013-04-01 18:05:00,59.8,51.9,30.11,East,96,5.0,0.0,75,0.00,,OVC060,0.00,VWS V14.01,2013-04-02 01:05:00,
2013-04-01 18:10:00,59.3,51.4,30.11,East,92,9.0,0.0,75,0.00,,OVC060,0.00,VWS V14.01,2013-04-02 01:10:00,
2013-04-01 18:15:00,58.9,51.4,30.11,ESE,116,4.0,0.0,76,0.00,,OVC060,0.00,VWS V14.01,2013-04-02 01:15:00,
2013-04-01 18:20:00,58.7,51.2,30.12,ESE,121,3.0,0.0,76,0.00,,OVC060,0.00,VWS V14.01,2013-04-02 01:20:00,
2013-04-01 18:25:00,58.5,51.3,30.12,East,88,8.0,0.0,77,0.00,,OVC046,0.00,VWS V14.01,2013-04-02 01:25:00,
2013-04-01 18:30:00,58.1,50.9,30.12,NNE,27,5.0,0.0,77,0.00,,OVC046,0.00,VWS V14.01,2013-04-02 01:30:00,
2013-04-01 18:34:00,57.4,50.6,30.12,East,84,6.0,0.0,78,0.00,,OVC046,0.00,VWS V14.01,2013-04-02 01:34:00,
2013-04-01 18:39:00,57.0,50.6,30.12,ENE,74,4.0,0.0,79,0.00,,OVC046,0.00,VWS V14.01,2013-04-02 01:39:00,
2013-04-01 18:44:00,56.6,50.5,30.13,ESE,119,5.0,0.0,80,0.00,,OVC046,0.00,VWS V14.01,2013-04-02 01:44:00,
2013-04-01 18:49:00,56.3,50.2,30.13,East,99,3.0,0.0,80,0.00,,OVC046,0.00,VWS V14.01,2013-04-02 01:49:00,
2013-04-01 18:54:00,55.9,50.2,30.13,East,95,7.0,0.0,81,0.00,,OVC046,0.00,VWS V14.01,2013-04-02 01:54:00,
2013-04-01 18:59:00,55.5,50.1,30.13,ESE,103,4.0,0.0,82,0.00,,OVC046,0.00,VWS V14.01,2013-04-02 01:59:00,
2013-04-01 19:04:00,55.1,50.0,30.13,ESE,109,9.0,0.0,83,0.00,,OVC048,0.00,VWS V14.01,2013-04-02 02:04:00,
2013-04-01 19:09:00,54.8,49.7,30.13,East,94,1.0,0.0,83,0.00,,OVC048,0.00,VWS V14.01,2013-04-02 02:09:00,
2013-04-01 19:14:00,54.6,49.9,30.13,ENE,75,5.0,0.0,84,0.00,,OVC048,0.00,VWS V14.01,2013-04-02 02:14:00,
2013-04-01 19:19:00,54.3,49.6,30.14,ENE,66,2.0,0.0,84,0.00,,OVC048,0.00,VWS V14.01,2013-04-02 02:19:00,
2013-04-01 19:24:00,54.1,49.7,30.14,East,100,2.0,0.0,85,0.00,,OVC046,0.00,VWS V14.01,2013-04-02 02:24:00,
2013-04-01 19:29:00,53.9,49.5,30.14,ESE,103,2.0,0.0,85,0.00,,OVC046,0.00,VWS V14.01,2013-04-02 02:29:00,
2013-04-01 19:34:00,53.7,49.3,30.14,East,101,1.0,0.0,85,0.00,,OVC046,0.00,VWS V14.01,2013-04-02 02:34:00,
2013-04-01 19:40:00,53.7,49.3,30.14,ESE,103,1.0,0.0,85,0.00,,OVC046,0.00,VWS V14.01,2013-04-02 02:40:00,
2013-04-01 19:45:00,53.6,49.5,30.14,ESE,115,4.0,0.0,86,0.00,,OVC042,0.00,VWS V14.01,2013-04-02 02:45:00,
2013-04-01 19:50:00,53.5,49.4,30.14,NE,55,3.0,0.0,86,0.00,,OVC042,0.00,VWS V14.01,2013-04-02 02:50:00,
2013-04-01 19:55:00,53.4,49.3,30.14,ESE,104,1.0,0.0,86,0.00,,OVC042,0.00,VWS V14.01,2013-04-02 02:55:00,
2013-04-01 20:00:00,53.4,49.3,30.14,East,86,3.0,0.0,86,0.00,,OVC042,0.00,VWS V14.01,2013-04-02 03:00:00,
2013-04-01 20:05:00,53.3,49.2,30.14,ESE,106,1.0,0.0,86,0.00,,OVC042,0.00,VWS V14.01,2013-04-02 03:05:00,
2013-04-01 20:10:00,53.2,49.1,30.14,ESE,116,9.0,0.0,86,0.00,,OVC042,0.00,VWS V14.01,2013-04-02 03:10:00,
2013-04-01 20:15:00,53.1,49.0,30.14,ESE,106,2.0,0.0,86,0.00,,OVC042,0.00,VWS V14.01,2013-04-02 03:15:00,
2013-04-01 20:20:00,53.1,49.3,30.14,ESE,104,1.0,0.0,87,0.00,,OVC042,0.00,VWS V14.01,2013-04-02 03:20:00,
2013-04-01 20:25:00,53.0,49.2,30.14,SE,129,4.0,0.0,87,0.00,,OVC042,0.00,VWS V14.01,2013-04-02 03:25:00,
2013-04-01 20:30:00,53.0,49.2,30.15,East,99,3.0,0.0,87,0.00,,OVC042,0.00,VWS V14.01,2013-04-02 03:30:00,
2013-04-01 20:35:00,52.9,49.1,30.15,ESE,121,0.0,0.0,87,0.00,,OVC042,0.00,VWS V14.01,2013-04-02 03:35:00,
2013-04-01 20:40:00,52.9,49.1,30.15,ESE,113,1.0,0.0,87,0.00,,OVC042,0.00,VWS V14.01,2013-04-02 03:40:00,
2013-04-01 20:45:00,52.9,49.1,30.15,ESE,119,2.0,0.0,87,0.00,,OVC042,0.00,VWS V14.01,2013-04-02 03:45:00,
2013-04-01 20:50:00,52.8,49.0,30.15,ESE,107,3.0,0.0,87,0.00,,OVC042,0.00,VWS V14.01,2013-04-02 03:50:00,
2013-04-01 20:55:00,52.8,49.0,30.16,ESE,111,1.0,0.0,87,0.00,,OVC042,0.00,VWS V14.01,2013-04-02 03:55:00,
2013-04-01 21:00:00,52.7,49.0,30.16,East,88,3.0,0.0,87,0.00,,OVC042,0.00,VWS V14.01,2013-04-02 04:00:00,
2013-04-01 21:05:00,52.7,49.0,30.16,ESE,109,2.0,0.0,87,0.00,,OVC038,0.00,VWS V14.01,2013-04-02 04:05:00,
2013-04-01 21:10:00,52.6,48.8,30.16,East,86,0.0,0.0,87,0.00,,OVC038,0.00,VWS V14.01,2013-04-02 04:10:00,
2013-04-01 21:15:00,52.6,48.8,30.16,ESE,110,3.0,0.0,87,0.00,,OVC038,0.00,VWS V14.01,2013-04-02 04:15:00,
2013-04-01 21:20:00,52.5,48.8,30.16,ESE,109,5.0,0.0,87,0.00,,OVC038,0.00,VWS V14.01,2013-04-02 04:20:00,
2013-04-01 21:25:00,52.4,48.7,30.16,ESE,121,4.0,0.0,87,0.00,,OVC038,0.00,VWS V14.01,2013-04-02 04:25:00,
2013-04-01 21:30:00,52.4,48.7,30.16,East,89,1.0,0.0,87,0.00,,OVC038,0.00,VWS V14.01,2013-04-02 04:30:00,
2013-04-01 21:35:00,52.3,48.5,30.16,ESE,107,1.0,0.0,87,0.00,,OVC038,0.00,VWS V14.01,2013-04-02 04:35:00,
2013-04-01 21:40:00,52.3,48.9,30.16,ESE,107,3.0,0.0,88,0.00,,OVC038,0.00,VWS V14.01,2013-04-02 04:40:00,
2013-04-01 21:45:00,52.4,49.0,30.16,ESE,123,2.0,0.0,88,0.00,,OVC038,0.00,VWS V14.01,2013-04-02 04:45:00,
2013-04-01 21:50:00,52.4,49.0,30.16,ESE,103,3.0,0.0,88,0.00,,OVC038,0.00,VWS V14.01,2013-04-02 04:50:00,
2013-04-01 21:55:00,52.3,48.9,30.17,ESE,104,1.0,0.0,88,0.00,,OVC038,0.00,VWS V14.01,2013-04-02 04:55:00,
2013-04-01 22:00:00,52.3,48.9,30.16,ESE,111,0.0,0.0,88,0.00,,OVC038,0.00,VWS V14.01,2013-04-02 05:00:00,
2013-04-01 22:05:00,52.2,48.8,30.16,ESE,110,0.0,0.0,88,0.00,,OVC040,0.00,VWS V14.01,2013-04-02 05:05:00,
2013-04-01 22:10:00,52.2,48.8,30.16,ESE,109,0.0,0.0,88,0.00,,OVC040,0.00,VWS V14.01,2013-04-02 05:10:00,
2013-04-01 22:15:00,52.1,48.7,30.16,ESE,109,0.0,0.0,88,0.00,,OVC040,0.00,VWS V14.01,2013-04-02 05:15:00,
2013-04-01 22:20:00,52.1,48.7,30.16,East,94,2.0,0.0,88,0.00,,OVC040,0.00,VWS V14.01,2013-04-02 05:20:00,
2013-04-01 22:25:00,52.0,48.6,30.16,ESE,111,0.0,0.0,88,0.00,,OVC038,0.00,VWS V14.01,2013-04-02 05:25:00,
2013-04-01 22:30:00,52.0,48.6,30.17,ESE,110,0.0,0.0,88,0.00,,OVC038,0.00,VWS V14.01,2013-04-02 05:30:00,
2013-04-01 22:35:00,52.0,48.6,30.17,ESE,111,1.0,0.0,88,0.00,,OVC038,0.00,VWS V14.01,2013-04-02 05:35:00,
2013-04-01 22:40:00,51.8,48.4,30.17,ESE,109,2.0,0.0,88,0.00,,OVC038,0.00,VWS V14.01,2013-04-02 05:40:00,
2013-04-01 22:45:00,51.8,48.4,30.17,ESE,109,1.0,0.0,88,0.00,,OVC038,0.00,VWS V14.01,2013-04-02 05:45:00,
2013-04-01 22:50:00,51.8,48.4,30.17,ESE,109,2.0,0.0,88,0.00,,OVC038,0.00,VWS V14.01,2013-04-02 05:50:00,
2013-04-01 22:55:00,51.7,48.3,30.17,East,99,0.0,0.0,88,0.00,,OVC038,0.00,VWS V14.01,2013-04-02 05:55:00,
2013-04-01 23:00:00,51.8,48.4,30.17,East,96,2.0,0.0,88,0.00,,OVC038,0.00,VWS V14.01,2013-04-02 06:00:00,
2013-04-01 23:05:00,51.8,48.4,30.17,ESE,108,1.0,0.0,88,0.00,,OVC038,0.00,VWS V14.01,2013-04-02 06:05:00,
2013-04-01 23:10:00,51.8,48.4,30.17,East,100,1.0,0.0,88,0.00,,OVC038,0.00,VWS V14.01,2013-04-02 06:10:00,
2013-04-01 23:15:00,51.8,48.4,30.17,ESE,122,2.0,0.0,88,0.00,,OVC038,0.00,VWS V14.01,2013-04-02 06:15:00,
2013-04-01 23:20:00,51.8,48.4,30.17,ESE,113,0.0,0.0,88,0.00,,OVC038,0.00,VWS V14.01,2013-04-02 06:20:00,
2013-04-01 23:25:00,51.8,48.4,30.17,East,95,1.0,0.0,88,0.00,,OVC017,0.00,VWS V14.01,2013-04-02 06:25:00,
2013-04-01 23:30:00,51.8,48.4,30.17,ESE,106,2.0,0.0,88,0.00,,OVC017,0.00,VWS V14.01,2013-04-02 06:30:00,
2013-04-01 23:35:00,51.9,48.5,30.17,ESE,106,0.0,0.0,88,0.00,,OVC017,0.00,VWS V14.01,2013-04-02 06:35:00,
2013-04-01 23:40:00,51.8,48.4,30.17,ESE,122,0.0,0.0,88,0.00,,OVC017,0.00,VWS V14.01,2013-04-02 06:40:00,
2013-04-01 23:45:00,51.8,48.4,30.17,ESE,103,0.0,0.0,88,0.00,,OVC036,0.00,VWS V14.01,2013-04-02 06:45:00,
2013-04-01 23:50:00,51.8,48.4,30.17,ESE,103,0.0,0.0,88,0.00,,OVC036,0.00,VWS V14.01,2013-04-02 06:50:00,
2013-04-01 23:55:00,51.8,48.4,30.17,ESE,103,0.0,0.0,88,0.00,,OVC036,0.00,VWS V14.01,2013-04-02 06:55:00,